Username
Password
 
Info Terbaru :
  

Jackpot hanya dapat di beli di awal sebelum periode tersebut berjalan dan jika berhasil maka anda dapat melihat di sisi kiri bawah atau kiri atas akan terdapat notifikasi bahwa jackpot anda berhasil di beli.

Jika anda membeli jackpot di tengah permainan maka pembelian jackpot akan berlaku untuk periode selanjutnya.

Jackpot Winner Ceme

Jackpot dilihat dari gabungan kartu pemain dengan kartu bandar. Bandar harus membeli jackpot sebanyak jumlah player yang sedang duduk. Sebagai contoh bila terdapat 3 pemain duduk bermain, dan bandar memutuskan untuk membeli jackpot Rp 1.000, maka pada periode tersebut bandar akan membeli jackpot sebanyak 3xRp1.000 = Rp3.000.

Jackpot bukanlah suatu keharusan untuk dibeli, namun kami memberikan suatu fitur tambahan untuk member tercinta dari www.lapakdp.com.

Terdapat tiga pilihan harga jackpot yang bisa anda beli yaitu :100,500 dan 1000 rupiah.

Hadiah dari Multi jackpot system www.lapakdp.com


  • Murni Kecil x 50 harga jackpot yang anda beli.

    (contoh:anda membeli 1000 maka:1000 X 50 = 50.000)

  • Murni Besar x 50 harga jackpot yang anda beli

    (contoh:anda membeli 1000 maka:1000 X 50 = 50.000)

  • BALAK x 200 harga jackpot yang anda beli

    (contoh:anda membeli 1000 maka:1000 X 200 = 200.000)

  • ENAM DEWA x 6666 harga jackpot yang anda beli

    (contoh:anda membeli 1000 maka:1000 X 6666 = 6.666.000)


Demikian adalah penjelasan dari Multi Jackpot www.lapakdp.com terima kasih dan selamat bermain salam hoki dari kami


Jackpot Winner

TOP ENAM DEWA
No. Tanggal Nama Price Win
1 25/05 13:47 DADANG242 murni enam 666,600
2 25/05 13:42 EMEN76 murni enam 6,666,000
3 25/05 13:42 BUATNJUGA murni enam 666,600
4 25/05 13:23 BAKOCI_17 murni enam 6,666,000
5 25/05 13:23 MHLS008 murni enam 3,333,000
TOP BALAK
No. Tanggal Nama Price Win
1 25/05 14:04 WALKERCS balak 200,000
2 25/05 14:04 SERVER9 balak 20,000
3 25/05 14:04 BOLJAYABOL balak 200,000
4 25/05 14:04 SIGURAMPAN balak 200,000
5 25/05 14:03 CACA2 balak 200,000
LATEST JACKPOT
No. Tanggal Nama Price Win
1 25/05 14:04 A98UKROMIN558 murni besar 50,000
2 25/05 14:04 A98UKROMIN558 murni besar 50,000
3 25/05 14:04 FACHRULRIZ murni kecil 50,000
4 25/05 14:04 GUDANGG9 murni kecil 50,000
5 25/05 14:04 CHANDRA84 murni besar 25,000
6 25/05 14:04 RKLINSMAN murni besar 25,000
7 25/05 14:04 TUKANG999 murni besar 50,000
8 25/05 14:04 KENTI81 murni besar 50,000
9 25/05 14:04 CINOHOKI39 murni besar 5,000
10 25/05 14:04 UKAYKAY murni besar 50,000
11 25/05 14:04 B3G4L01 murni kecil 25,000
12 25/05 14:04 CONGLII99 murni kecil 25,000
13 25/05 14:04 WALKERCS balak 200,000
14 25/05 14:04 SARAS285 murni besar 25,000
15 25/05 14:04 KOLY murni kecil 50,000
16 25/05 14:04 GBEZZASPAT murni kecil 25,000
17 25/05 14:04 SERVER9 balak 20,000
18 25/05 14:04 BOLJAYABOL balak 200,000
19 25/05 14:04 MENTOLO85 murni kecil 25,000
20 25/05 14:04 SIGURAMPAN balak 200,000
21 25/05 14:04 BAYONKJR murni kecil 25,000
22 25/05 14:04 GHANI9999 murni kecil 25,000
23 25/05 14:03 CACA2 balak 200,000
24 25/05 14:03 ESSE19 murni besar 25,000
25 25/05 14:03 GASAKK123 murni besar 50,000
26 25/05 14:03 SANDRY1812 murni besar 5,000
27 25/05 14:03 YESLAH murni kecil 25,000
28 25/05 14:03 KIEP murni besar 25,000
29 25/05 14:03 TINIKARTI balak 200,000
30 25/05 14:03 KETIAK99 balak 200,000
31 25/05 14:03 MACULLL murni besar 50,000
32 25/05 14:03 IWAKTEMPEL murni besar 50,000
33 25/05 14:03 SSBY85 murni kecil 50,000
34 25/05 14:03 JANDAKU98 murni kecil 50,000
35 25/05 14:03 XEIZEL murni kecil 25,000
36 25/05 14:03 TARMUZI23 murni kecil 50,000
37 25/05 14:03 D14DPRO8176361 murni kecil 50,000
38 25/05 14:03 UKAYKAY balak 200,000
39 25/05 14:03 SUMANGAYEN murni besar 5,000
40 25/05 14:03 WILIAM_S murni besar 50,000
41 25/05 14:03 KARTU666 murni besar 50,000
42 25/05 14:03 PAGEDE murni kecil 50,000
43 25/05 14:03 BANGSUL_ murni kecil 5,000
44 25/05 14:03 A98UKROMIN558 murni besar 50,000
45 25/05 14:03 MARB8899 murni kecil 50,000
46 25/05 14:03 YUNK1945 murni kecil 50,000
47 25/05 14:03 KRANINAO murni kecil 50,000
48 25/05 14:03 JOKERMAN89 murni kecil 25,000
49 25/05 14:03 KRANINAO murni kecil 50,000
50 25/05 14:03 SOUPBLE02 murni kecil 5,000


Situs Poker Online
Dewapoker.com Hadir untuk semua pecinta permainan kartu poker online yang khususnya berada di asia. Dengan system teknology baru dan server kecepatan tinggi akan membuat permainan poker anda lebih seru dan menarik bersama teman2x anda maupun saingan anda. Cukup lakukan login dan langsung bermain tanpa download. Dewapoker.com dengan encrypsi server yang tinggi akan menjamin keamanan data para member.
Terms & Conditions Link Alternatif Cara Bermain Video Dewapoker
© Copyright 2019 Dewa Poker. All right reserved.